STARLINK-5761, 55599

Orbit data source: Space-Track

STARLINK-5761, 55599 is a payload satellite owned by SpaceX/Seattle (US) in LEO that was launched on Sun, 12 Feb 2023 UTC via an FALCON 9 launch vehicle from the Air Force Eastern Test Range (AFETR). Payload-class satellites include a variety of spacecraft equipped with specific instruments for various scientific and technological missions. These include communications satellites like Starlink; space stations such as the ISS; scientific satellites like the Hubble; Earth observation satellites from companies like Planet Labs, Umbra, and HawkEye 360; GPS; miniature CubeSats for education and research; and military/defense satellites.

Loading next visibility...
Identifier
55599, 2023-020AG
Orbit
LEO
Country
Flag of USUS
Related business
Manufacturer
SpaceX/Seattle
Mission
Operational Commercial Communications
Bus & Motor
STARLINK, Unknown motor
Mass
305 kg wet, ~290 kg dry
Launch date (UTC)
2023-02-12 (3 years ago)
Launch vehicle
FALCON 9
Launch site
Air Force Eastern Test Range (AFETR)
Object type
Payload
Rocket body
Debris
Shape & HBR
Box + 1 Pan, 10.1 m
Radar Cross Section
13.562 m², Large (>1 m²)

Expand to show TLE details & history
Last TLE update: 10 hours ago

TLE from 10 hours ago
0 STARLINK-5761
1 55599U 23020AG  26061.90529792 -.00003657  00000-0 -25578-3 0  9991
2 55599  43.0051  28.9515 0001524 278.0364  82.0306 15.02537455168045
Epoch: 2026-03-02T21:43Z
TLE epoch observation values (Epoch: 2026-03-02T21:43:37.740Z)
Latitude
0.00003°
Longitude
-97.64772°
Altitude
558.707 km
Speed
7.584 km/s
True Right ascension
01h 55m 48s
True Declination
0° 00' 00"
Sunlit
Object was in daylight at epoch
Visualization orbit readout
Latitude
Unknown
Longitude
Unknown
Altitude
Unknown
Speed
Unknown
Apparent Right ascension
Unknown
Apparent Declination
Unknown
Sunlit
N/A
Visualization observer readout
Local Sidereal Time
11:21:48
Azimuth
Unknown
Elevation
Unknown
Doppler factor
Unknown
Orbital elements
Apogee altitude
562.056 km
Perigee altitude
559.941 km
Semi-major axis
6,939.135 km
Eccentricity
0.00015
Inclination
43.0051°
RAAN
28.9515°
Arg. of periapsis
278.0364°
True anomaly
82.0479°
Mean anomaly
82.0306°
Eccentric anomaly
82.03925°
Mean motion
3.75479 °/min
Orbital period
95.88 mins
BSTAR
-0.00025578
Loading maneuver chart data...
Computing Atmospheric mass density...
Loading historical data...
Loading historical data...
Loading historical data...
Loading historical data...
Loading historical data...
Loading historical data...
Loading historical data...

Documentation

Showing up to 5 results
|